Location: Newark
(50.0336°N, 22.0047°E)
Time: 18:20:16
(UTC+00:00)

Envisat - Pass Details

Date: 28 January 2020
Orbit: 764 x 766 km, 98.1° (Epoch: 17 February)

Event Time Altitude Azimuth Distance (km) Brightness Sun altitude
Rises 04:18:39 0° 23° (NNE) 3,244 6.5 -18.1°
Reaches altitude 10° 04:21:22 10° 37° (NE) 2,312 5.8 -17.7°
Maximum altitude 04:25:34 25° 92° (E) 1,500 5.4 -17.0°
Drops below altitude 10° 04:29:43 10° 148° (SSE) 2,297 6.0 -16.3°
Sets 04:32:24 0° 161° (SSE) 3,218 6.6 -15.9°
